Hourly Weather Exeter

Today, 10 July, Friday

Time Temperature Precipitation Wind Pressure Humidity
00:00 +13°C° 0 mm 5 mps 754 mmHg 91%
01:00 +12°C° 0 mm 5 mps 754 mmHg 92%
02:00 +11°C° 0 mm 4 mps 754 mmHg 93%
03:00 +10°C° 0 mm 4 mps 754 mmHg 94%
04:00 +11°C° 0 mm 4 mps 755 mmHg 91%
05:00 +11°C° 0 mm 3 mps 755 mmHg 88%
06:00 +11°C° 0 mm 3 mps 756 mmHg 85%
07:00 +12°C° 0 mm 4 mps 756 mmHg 79%
08:00 +13°C° 0 mm 5 mps 757 mmHg 73%
09:00 +15°C° 0 mm 5 mps 757 mmHg 68%
10:00 +15°C° 0 mm 5 mps 757 mmHg 66%
11:00 +16°C° 0 mm 5 mps 758 mmHg 64%
12:00 +16°C° 0 mm 6 mps 758 mmHg 61%
13:00 +16°C° 0 mm 6 mps 758 mmHg 62%
14:00 +16°C° 0 mm 6 mps 758 mmHg 63%
15:00 +16°C° 0 mm 6 mps 758 mmHg 63%
16:00 +16°C° 0 mm 6 mps 758 mmHg 66%
17:00 +15°C° 0 mm 6 mps 759 mmHg 68%
18:00 +14°C° 0 mm 5 mps 759 mmHg 70%
19:00 +13°C° 0 mm 5 mps 759 mmHg 77%
20:00 +12°C° 0 mm 4 mps 760 mmHg 83%
21:00 +10°C° 0 mm 4 mps 760 mmHg 89%
22:00 +10°C° 0 mm 4 mps 760 mmHg 90%
23:00 +10°C° 0 mm 4 mps 760 mmHg 91%

Tomorrow, 11 July, Saturday

Time Temperature Precipitation Wind Pressure Humidity
00:00 +10°C° 0 mm 3 mps 760 mmHg 92%
01:00 +9°C° 0 mm 3 mps 761 mmHg 92%
02:00 +9°C° 0 mm 2 mps 761 mmHg 92%
03:00 +9°C° 0 mm 2 mps 761 mmHg 91%
04:00 +10°C° 0 mm 2 mps 761 mmHg 90%
05:00 +12°C° 0 mm 2 mps 761 mmHg 89%
06:00 +13°C° 0 mm 1 mps 761 mmHg 88%
07:00 +14°C° 0 mm 1 mps 762 mmHg 81%
08:00 +15°C° 0 mm 2 mps 762 mmHg 75%
09:00 +17°C° 0 mm 2 mps 763 mmHg 69%
10:00 +17°C° 0 mm 2 mps 763 mmHg 67%
11:00 +18°C° 0 mm 3 mps 763 mmHg 65%
12:00 +18°C° 0 mm 3 mps 763 mmHg 63%
13:00 +19°C° 0 mm 3 mps 763 mmHg 62%
14:00 +19°C° 0 mm 3 mps 763 mmHg 62%
15:00 +19°C° 0 mm 3 mps 763 mmHg 61%
16:00 +18°C° 0 mm 3 mps 763 mmHg 65%
17:00 +18°C° 0 mm 3 mps 763 mmHg 68%
18:00 +17°C° 0 mm 3 mps 763 mmHg 71%
19:00 +14°C° 0 mm 3 mps 763 mmHg 77%
20:00 +14°C° 0 mm 2 mps 763 mmHg 83%
21:00 +12°C° 0 mm 2 mps 763 mmHg 89%
22:00 +10°C° 0 mm 2 mps 763 mmHg 89%
23:00 +10°C° 0 mm 2 mps 763 mmHg 89%

Day after tomorrow, 12 July, Sunday

Time Temperature Precipitation Wind Pressure Humidity
00:00 +9°C° 0 mm 2 mps 763 mmHg 89%
01:00 +10°C° 0 mm 1 mps 763 mmHg 88%
02:00 +10°C° 0 mm 1 mps 763 mmHg 87%
03:00 +10°C° 0 mm 1 mps 763 mmHg 87%
04:00 +11°C° 0 mm 1 mps 763 mmHg 86%
05:00 +12°C° 0 mm 1 mps 763 mmHg 86%
06:00 +12°C° 0 mm 1 mps 763 mmHg 85%
07:00 +14°C° 0 mm 1 mps 763 mmHg 81%
08:00 +15°C° 0 mm 2 mps 763 mmHg 76%
09:00 +17°C° 0 mm 2 mps 763 mmHg 72%
10:00 +17°C° 0 mm 2 mps 763 mmHg 68%
11:00 +18°C° 0 mm 2 mps 763 mmHg 65%
12:00 +19°C° 0 mm 2 mps 763 mmHg 62%
13:00 +19°C° 0 mm 2 mps 763 mmHg 62%
14:00 +19°C° 0 mm 2 mps 763 mmHg 62%
15:00 +20°C° 0 mm 2 mps 763 mmHg 63%
16:00 +19°C° 0 mm 2 mps 763 mmHg 66%
17:00 +19°C° 0 mm 2 mps 763 mmHg 69%
18:00 +18°C° 0 mm 2 mps 762 mmHg 72%
19:00 +16°C° 0 mm 2 mps 763 mmHg 77%
20:00 +15°C° 0 mm 1 mps 763 mmHg 82%
21:00 +13°C° 0 mm 1 mps 763 mmHg 87%
22:00 +12°C° 0 mm 1 mps 763 mmHg 85%
23:00 +12°C° 0 mm 1 mps 762 mmHg 83%

13 July, Monday

Time Temperature Precipitation Wind Pressure Humidity
00:00 +11°C° 0 mm 1 mps 762 mmHg 81%
01:00 +11°C° 0 mm 1 mps 762 mmHg 80%
02:00 +11°C° 0 mm 1 mps 762 mmHg 78%
03:00 +11°C° 0 mm 1 mps 762 mmHg 76%
04:00 +11°C° 0 mm 1 mps 761 mmHg 76%
05:00 +12°C° 0 mm 1 mps 761 mmHg 75%
06:00 +13°C° 0 mm 1 mps 761 mmHg 74%
07:00 +15°C° 0 mm 1 mps 761 mmHg 70%
08:00 +16°C° 0 mm 1 mps 761 mmHg 65%
09:00 +18°C° 0 mm 1 mps 761 mmHg 61%
10:00 +18°C° 0 mm 2 mps 761 mmHg 59%
11:00 +19°C° 0 mm 2 mps 761 mmHg 58%
12:00 +20°C° 0 mm 2 mps 761 mmHg 56%
13:00 +20°C° 0 mm 3 mps 761 mmHg 57%
14:00 +20°C° 0 mm 3 mps 760 mmHg 58%
15:00 +20°C° 0 mm 3 mps 760 mmHg 59%
16:00 +19°C° 0 mm 3 mps 760 mmHg 63%
17:00 +19°C° 0 mm 3 mps 759 mmHg 66%
18:00 +18°C° 0 mm 3 mps 759 mmHg 70%
19:00 +17°C° 0 mm 3 mps 759 mmHg 72%
20:00 +16°C° 0 mm 2 mps 759 mmHg 73%
21:00 +14°C° 0 mm 1 mps 759 mmHg 75%
22:00 +14°C° 0 mm 2 mps 758 mmHg 75%
23:00 +14°C° 0 mm 2 mps 758 mmHg 75%

14 July, Tuesday

Time Temperature Precipitation Wind Pressure Humidity
00:00 +14°C° 0 mm 2 mps 757 mmHg 75%
01:00 +14°C° 0.3 mm 2 mps 757 mmHg 80%
02:00 +14°C° 0.3 mm 2 mps 756 mmHg 85%
03:00 +14°C° 0.3 mm 2 mps 756 mmHg 91%
04:00 +14°C° 0 mm 2 mps 756 mmHg 92%
05:00 +14°C° 0 mm 3 mps 756 mmHg 93%
06:00 +14°C° 0 mm 3 mps 756 mmHg 94%
07:00 +16°C° 0 mm 3 mps 756 mmHg 91%
08:00 +17°C° 0 mm 3 mps 756 mmHg 88%
09:00 +18°C° 0 mm 4 mps 756 mmHg 84%
10:00 +18°C° 0.2 mm 4 mps 756 mmHg 81%
11:00 +19°C° 0.2 mm 5 mps 756 mmHg 78%
12:00 +19°C° 0.2 mm 5 mps 756 mmHg 75%
13:00 +19°C° 0 mm 5 mps 755 mmHg 74%
14:00 +19°C° 0 mm 6 mps 755 mmHg 73%
15:00 +19°C° 0 mm 6 mps 755 mmHg 72%
16:00 +17°C° 0 mm 6 mps 755 mmHg 74%
17:00 +16°C° 0 mm 5 mps 755 mmHg 76%
18:00 +15°C° 0 mm 5 mps 755 mmHg 77%
19:00 +15°C° 0 mm 5 mps 755 mmHg 79%
20:00 +14°C° 0 mm 5 mps 755 mmHg 81%
21:00 +14°C° 0 mm 4 mps 754 mmHg 83%
22:00 +14°C° 0 mm 5 mps 754 mmHg 84%
23:00 +14°C° 0 mm 5 mps 754 mmHg 85%

15 July, Wednesday

Time Temperature Precipitation Wind Pressure Humidity
00:00 +14°C° 0 mm 6 mps 754 mmHg 87%
01:00 +14°C° 0 mm 6 mps 753 mmHg 88%
02:00 +14°C° 0 mm 6 mps 753 mmHg 89%
03:00 +14°C° 0 mm 6 mps 753 mmHg 91%
04:00 +15°C° 0 mm 6 mps 753 mmHg 91%
05:00 +15°C° 0 mm 6 mps 753 mmHg 91%
06:00 +15°C° 0 mm 6 mps 753 mmHg 91%
07:00 +16°C° 0 mm 6 mps 753 mmHg 89%
08:00 +16°C° 0 mm 6 mps 753 mmHg 88%
09:00 +16°C° 0 mm 6 mps 753 mmHg 87%
10:00 +17°C° 0 mm 6 mps 753 mmHg 86%
11:00 +17°C° 0 mm 6 mps 754 mmHg 85%
12:00 +17°C° 0 mm 6 mps 754 mmHg 84%
13:00 +19°C° 0 mm 6 mps 754 mmHg 83%
14:00 +19°C° 0 mm 6 mps 754 mmHg 82%
15:00 +19°C° 0 mm 6 mps 754 mmHg 81%
16:00 +17°C° 0 mm 6 mps 754 mmHg 82%
17:00 +17°C° 0 mm 6 mps 754 mmHg 82%
18:00 +17°C° 0 mm 6 mps 754 mmHg 83%
19:00 +16°C° 0 mm 6 mps 754 mmHg 83%
20:00 +15°C° 0 mm 6 mps 754 mmHg 84%
21:00 +15°C° 0 mm 5 mps 754 mmHg 85%
22:00 +15°C° 0 mm 5 mps 754 mmHg 85%
23:00 +15°C° 0 mm 5 mps 754 mmHg 85%
Show more